Wheeling, WV

9:04 AM EST on December 07, 2019 (GMT -0500)
Wheeling-Ohio County

Weather History for KHLG - October, 2019

Change the Weather History Date:

Sunday, October 13, 2019

  Actual Average Record
Temperature  
Mean Temperature 50 °F 54 °F  
Max Temperature 65 °F 64 °F 83 °F (1947)
Min Temperature 35 °F 45 °F 25 °F (1939)
Degree Days  
Heating Degree Days 15 11  
Month to date heating degree days 73 121  
Since 1 July heating degree days 74 222  
Cooling Degree Days 0 0  
Month to date cooling degree days 40 10  
Year to date cooling degree days 986 688  
Moisture  
Dew Point 37 °F    
Average Humidity 64    
Maximum Humidity 100    
Minimum Humidity 28    
Precipitation  
Precipitation 0.00 in 0.08 in 0.72 in (2011)
Month to date precipitation 1.72 1.09  
Year to date precipitation 29.70 30.86  
Sea Level Pressure  
Sea Level Pressure 30.05 in    
Wind  
Wind Speed 7 mph (South)    
Max Wind Speed 17 mph    
Max Gust Speed 20 mph    
Visibility 6 miles    
Events Fog    
T = Trace of Precipitation, MM = Missing Value Source: NWS Daily Summary

Daily Weather History Graph

Daily Weather History Graph

Search for Another Location

Airport or City:

Astronomy

Oct. 13, 2019 Rise Set
Actual Time 7:30 AM EDT 6:46 PM EDT
Civil Twilight 7:03 AM EDT 7:13 PM EDT
Nautical Twilight 6:32 AM EDT 7:44 PM EDT
Astronomical Twilight 6:00 AM EDT 8:16 PM EDT
Moon 7:08 PM EDT (10/13) 7:03 AM EDT (10/13)
Length of Visible Light 12h 09m
Length of Day
11h 15m
Full, 100% of the Moon is Illuminated
Oct 13
Full
Oct 13
Full
Oct 21
Last Quarter
Oct 27
New
Nov 4
First Quarter

Hourly Weather History & Observations

Time (EDT) Temp. Windchill Dew Point Humidity Pressure Visibility Wind Dir Wind Speed Gust Speed Precip Events Conditions
12:53 AM 42.1 °F 37.1 °F 35.1 °F 76% 30.11 in 10.0 mi South 8.1 mph - N/A   Clear
1:53 AM 41.0 °F 39.0 °F 35.1 °F 79% 30.11 in 10.0 mi SW 3.5 mph - N/A   Clear
2:53 AM 41.0 °F 35.8 °F 37.0 °F 86% 30.10 in 10.0 mi South 8.1 mph - N/A   Clear
3:53 AM 41.0 °F 35.2 °F 37.0 °F 86% 30.08 in 10.0 mi South 9.2 mph - N/A   Clear
4:53 AM 41.0 °F 37.1 °F 37.0 °F 86% 30.08 in 10.0 mi Variable 5.8 mph - N/A   Clear
5:53 AM 39.9 °F 37.8 °F 37.0 °F 89% 30.08 in 10.0 mi South 3.5 mph - N/A   Clear
6:44 AM 39.0 °F - 36.0 °F 89% 30.07 in 2.0 mi Calm Calm - N/A   Partly Cloudy
6:46 AM 37.9 °F - 36.0 °F 93% 30.07 in 0.8 mi Calm Calm - N/A   Mist
6:53 AM 37.9 °F - 36.0 °F 93% 30.10 in 0.2 mi Calm Calm - N/A Fog Fog
7:03 AM 37.9 °F 35.5 °F 36.0 °F 93% 30.08 in 1.0 mi SSW 3.5 mph - N/A   Mist
7:07 AM 37.9 °F 35.5 °F 36.0 °F 93% 30.08 in 2.0 mi SSW 3.5 mph - N/A   Scattered Clouds
7:13 AM 36.0 °F 33.3 °F 35.1 °F 97% 30.08 in 1.0 mi South 3.5 mph - N/A   Mist
7:15 AM 36.0 °F 33.3 °F 34.0 °F 93% 30.07 in 0.5 mi SSE 3.5 mph - N/A Fog Fog
7:50 AM 37.4 °F 32.8 °F 35.6 °F 93% 30.07 in 1.2 mi South 5.8 mph - N/A   Partly Cloudy
7:53 AM 36.0 °F 32.1 °F 36.0 °F 100% 30.10 in 3.0 mi South 4.6 mph - N/A   Partly Cloudy
7:55 AM 36.0 °F 32.1 °F 35.1 °F 97% 30.07 in 1.5 mi SSE 4.6 mph - N/A   Partly Cloudy
8:00 AM 35.1 °F 30.1 °F 34.0 °F 96% 30.07 in 0.8 mi SSE 5.8 mph - N/A   Mist
8:13 AM 37.0 °F 31.0 °F 36.0 °F 96% 30.07 in 2.5 mi SSE 8.1 mph - N/A   Clear
8:20 AM 37.9 °F 32.7 °F 37.0 °F 97% 30.07 in 8.0 mi South 6.9 mph - N/A   Clear
8:53 AM 37.9 °F 35.5 °F 36.0 °F 93% 30.10 in 7.0 mi SSW 3.5 mph - N/A   Clear
9:15 AM 39.9 °F 35.8 °F 37.9 °F 93% 30.08 in 2.5 mi SW 5.8 mph - N/A   Scattered Clouds
9:19 AM 39.9 °F 36.7 °F 37.9 °F 93% 30.08 in 1.0 mi SSW 4.6 mph - N/A   Mist
9:23 AM 39.9 °F 36.7 °F 39.0 °F 97% 30.08 in 0.5 mi SSW 4.6 mph - N/A Fog Fog
9:53 AM 41.0 °F 36.4 °F 39.9 °F 96% 30.10 in 0.5 mi South 6.9 mph - N/A Fog Fog
10:05 AM 41.0 °F 36.4 °F 39.9 °F 96% 30.07 in 1.0 mi SSW 6.9 mph - N/A   Overcast
10:09 AM 42.1 °F 39.2 °F 41.0 °F 96% 30.07 in 3.0 mi South 4.6 mph - N/A   Overcast
10:33 AM 44.1 °F 40.1 °F 42.1 °F 93% 30.07 in 10.0 mi SSW 6.9 mph - N/A   Scattered Clouds
10:53 AM 46.0 °F 43.9 °F 42.1 °F 86% 30.09 in 10.0 mi SW 4.6 mph - N/A   Clear
11:53 AM 52.0 °F - 39.9 °F 63% 30.06 in 10.0 mi SSW 6.9 mph - N/A   Clear
12:53 PM 55.0 °F - 39.0 °F 55% 30.03 in 10.0 mi South 4.6 mph - N/A   Clear
1:53 PM 60.1 °F - 36.0 °F 41% 30.00 in 10.0 mi South 8.1 mph - N/A   Clear
2:53 PM 63.0 °F - 33.1 °F 33% 29.97 in 10.0 mi SSW 6.9 mph - N/A   Clear
3:53 PM 64.0 °F - 30.0 °F 28% 29.95 in 10.0 mi SW 15.0 mph 20.7 mph N/A   Clear
4:53 PM 64.0 °F - 35.1 °F 34% 29.94 in 10.0 mi SSW 9.2 mph - N/A   Clear
5:53 PM 62.1 °F - 34.0 °F 35% 29.94 in 10.0 mi South 9.2 mph - N/A   Clear
6:53 PM 57.9 °F - 36.0 °F 44% 29.95 in 10.0 mi South 8.1 mph - N/A   Clear
7:53 PM 55.9 °F - 37.0 °F 49% 29.95 in 10.0 mi South 10.4 mph - N/A   Clear
8:53 PM 53.1 °F - 35.1 °F 50% 29.96 in 10.0 mi South 10.4 mph - N/A   Clear
9:53 PM 53.1 °F - 34.0 °F 48% 29.97 in 10.0 mi SW 5.8 mph - N/A   Clear
10:53 PM 50.0 °F - 35.1 °F 57% 29.98 in 10.0 mi South 6.9 mph - N/A   Clear
11:53 PM 50.0 °F - 36.0 °F 59% 29.96 in 10.0 mi South 9.2 mph - N/A   Clear